Flag for Australia Weather past 2 weeks in Rockhampton, Queensland, Australia

Now
59 °F

Light rain. Overcast.


Feels Like: 58 °F
Forecast: 65 / 73 °F
Wind: 8 mph from Southeast

Location: Rockhampton Airport

Current Time: Sep 22, 2014 at 1:00:23 AM

Latest Report: Sep 22, 2014 at 12:00 AM


Visibility: N/A

Pressure: 30.21 "Hg

Humidity: 94%

Dew point: 57 °F

Location of RockhamptonLocation

Historic Weather in Rockhampton — Graph

°F

Rockhampton temperature yesterday

Maximum temperature yesterday: 73 °F (at 9:00 AM)
Minimum temperature yesterday: 59 °F (at 10:00 PM)
Average temperature yesterday: 66 °F

Past Weeks' High & Low Weather Summary

 TemperatureHumidityPressure
High91 °F (Sep 17, 2:30 PM)100% (Sep 10, 6:50 AM)30.24 "Hg (Sep 10, 6:50 AM)
Low54 °F (Sep 16, 4:00 AM)11% (Sep 17, 4:30 PM)29.86 "Hg (Sep 17, 3:30 PM)
Average69 °F67%30.06 "Hg
* Reported Midnight between Sep 6 and Sep 7 — Midnight between Sep 21 and Sep 22, Rockhampton, Weather by CustomWeather, © 2014

Note: Actual official high and low records may vary slightly from our data, if they occured in-between our weather recording intervals... More about our weather records

Advertising

Rockhampton weather history for previous 24 hours

 ConditionsComfort  
Time TempWeatherWind HumidityBarometerVisibility
12:00 AM
Sep 22
59 °FLight rain. Overcast.8 mph94%30.21 "HgN/A
11:30 PM
Sep 21
59 °FRain. Overcast.8 mph94%30.21 "HgN/A
11:00 PM59 °FLight rain. Overcast.8 mph100%30.21 "HgN/A
10:30 PM59 °FRain. Overcast.9 mph100%30.21 "Hg3 mi
10:00 PM59 °FPassing clouds.7 mph94%30.24 "Hg6 mi
9:30 PM61 °FPassing clouds.12 mph94%30.21 "Hg6 mi
9:00 PM61 °FLight rain. Low clouds.12 mph94%30.21 "Hg4 mi
8:30 PM61 °FLight rain. Mostly cloudy.10 mph94%30.21 "Hg4 mi
8:00 PM61 °FRain. Mostly cloudy.10 mph100%30.21 "Hg3 mi
7:04 PM61 °FSprinkles. Partly cloudy.8 mph94%30.21 "Hg4 mi
7:00 PM63 °FSprinkles. Low clouds.8 mph94%30.18 "Hg6 mi
6:30 PM64 °FOvercast.13 mph88%30.15 "HgN/A
6:00 PM64 °FPartly cloudy.9 mph88%30.15 "HgN/A
5:30 PM64 °FPartly cloudy.6 mph94%30.15 "HgN/A
5:00 PM64 °FPassing clouds.8 mph88%30.12 "HgN/A
4:30 PM66 °FScattered showers. Broken clouds.7 mph88%30.12 "Hg5 mi
4:00 PM64 °FSleet. Partly sunny.5 mph100%30.12 "Hg4 mi
3:30 PM66 °FLight rain. Broken clouds.9 mph88%30.12 "Hg6 mi
3:00 PM66 °FRain showers. Broken clouds.7 mph88%30.12 "Hg4 mi
2:00 PM73 °FScattered clouds.12 mph61%30.12 "HgN/A
1:00 PM72 °FPartly sunny.8 mph65%30.12 "HgN/A
12:30 PM72 °FScattered showers. Partly sunny.8 mph65%30.12 "HgN/A
12:00 PM72 °FScattered showers. Partly sunny.8 mph69%30.15 "HgN/A
11:30 AM70 °FSprinkles. Broken clouds.9 mph73%30.15 "HgN/A
11:00 AM72 °FSprinkles. Broken clouds.15 mph57%30.15 "HgN/A
10:30 AM73 °FScattered showers. Partly sunny.14 mph57%30.15 "HgN/A
10:00 AM72 °FScattered showers. Scattered clouds.12 mph69%30.18 "HgN/A
9:30 AM72 °FPartly sunny.15 mph69%30.18 "HgN/A
9:00 AM73 °FBroken clouds.13 mph53%30.15 "HgN/A
8:00 AM70 °FBroken clouds.9 mph73%30.15 "HgN/A
7:30 AM68 °FPartly sunny.7 mph78%30.15 "HgN/A
7:00 AM66 °FPartly sunny.7 mph83%30.15 "HgN/A
6:00 AM66 °FPartly sunny.8 mph78%30.12 "HgN/A
5:30 AM64 °FScattered clouds.6 mph88%30.12 "HgN/A
5:00 AM64 °FScattered clouds.3 mph88%30.12 "HgN/A
4:30 AM64 °FPassing clouds.6 mph88%30.09 "HgN/A
4:00 AM66 °FPartly cloudy.6 mph83%30.09 "HgN/A
Weather by CustomWeather, © 2014

See weather overviewHow to use our weather pages